| time (UTC) | temp C | wind direction | speed KPH | gust KPH | rain 1hr cm | rain 24hr cm | rain mn cm | humidity % | barometer mb |
| 20260504081502 | 6 | 324 | 0.0 | 0.0 | 0.00 | 0.00 | 0.00 | 75 | 1014.4 |
| 20260504044543 | 5 | 337 | 0.0 | 4.8 | 0.00 | 0.00 | 0.00 | 75 | 1015.3 |
| 20260504043042 | 5 | 322 | 1.6 | 4.8 | 0.00 | 0.00 | 0.00 | 75 | 1015.2 |
| 20260504041539 | 5 | 96 | 1.6 | 4.8 | 0.00 | 0.00 | 0.00 | 75 | 1015.2 |
| 20260504040058 | 5 | 354 | 1.6 | 3.2 | 0.00 | 0.00 | 0.00 | 70 | 1015.2 |
| 20260504034536 | 6 | 295 | 3.2 | 4.8 | 0.00 | 0.00 | 0.00 | 69 | 1015.3 |
| 20260504033035 | 6 | 71 | 1.6 | 4.8 | 0.00 | 0.00 | 0.00 | 66 | 1015.2 |
| 20260504031536 | 6 | 154 | 0.0 | 3.2 | 0.00 | 0.00 | 0.00 | 69 | 1015.3 |
| 20260504030032 | 6 | 141 | 0.0 | 3.2 | 0.00 | 0.00 | 0.00 | 68 | 1015.0 |
| 20260504024531 | 6 | 116 | 1.6 | 4.8 | 0.00 | 0.00 | 0.00 | 68 | 1015.1 |
| 20260504023031 | 6 | 254 | 1.6 | 3.2 | 0.00 | 0.00 | 0.00 | 64 | 1015.1 |
| 20260504021531 | 6 | 140 | 1.6 | 9.7 | 0.00 | 0.00 | 0.00 | 63 | 1015.1 |
| 20260504020031 | 7 | 48 | 1.6 | 6.4 | 0.00 | 0.00 | 0.00 | 65 | 1015.1 |
| 20260504014529 | 7 | 274 | 4.8 | 11.3 | 0.00 | 0.00 | 0.00 | 60 | 1014.8 |
| 20260504013029 | 8 | 274 | 3.2 | 6.4 | 0.00 | 0.00 | 0.00 | 57 | 1014.7 |
| 20260504011529 | 8 | 283 | 4.8 | 6.4 | 0.00 | 0.00 | 0.00 | 55 | 1014.5 |
| 20260504010030 | 9 | 264 | 1.6 | 6.4 | 0.00 | 0.00 | 0.00 | 53 | 1014.4 |
| 20260504004540 | 10 | 297 | 1.6 | 4.8 | 0.00 | 0.00 | 0.00 | 52 | 1014.4 |
| 20260504003027 | 10 | 259 | 3.2 | 12.9 | 0.00 | 0.00 | 0.00 | 48 | 1014.3 |
| 20260504001527 | 11 | 253 | 4.8 | 11.3 | 0.00 | 0.00 | 0.00 | 48 | 1014.2 |
| 20260504000027 | 12 | 287 | 1.6 | 6.4 | 0.00 | 0.00 | 0.00 | 42 | 1014.2 |
| 20260503234526 | 13 | 271 | 3.2 | 14.5 | 0.00 | 0.00 | 0.00 | 40 | 1014.1 |
| 20260503233026 | 13 | 337 | 1.6 | 8.0 | 0.00 | 0.00 | 0.00 | 40 | 1014.2 |
| 20260503231525 | 14 | 264 | 0.0 | 4.8 | 0.00 | 0.00 | 0.00 | 34 | 1014.2 |
| 20260503230024 | 14 | 273 | 8.0 | 16.1 | 0.00 | 0.00 | 0.00 | 33 | 1014.1 |
| 20260503224524 | 15 | 292 | 11.3 | 19.3 | 0.00 | 0.00 | 0.00 | 32 | 1014.1 |
| 20260503223024 | 15 | 256 | 9.7 | 17.7 | 0.00 | 0.00 | 0.00 | 31 | 1014.1 |
| 20260503221522 | 15 | 258 | 0.0 | 16.1 | 0.00 | 0.00 | 0.00 | 30 | 1013.9 |
| 20260503220022 | 16 | 256 | 0.0 | 20.9 | 0.00 | 0.00 | 0.00 | 31 | 1014.0 |
| 20260503214519 | 16 | 291 | 4.8 | 17.7 | 0.00 | 0.00 | 0.00 | 32 | 1014.1 |
| 20260503213020 | 17 | 318 | 9.7 | 20.9 | 0.00 | 0.00 | 0.00 | 29 | 1014.2 |
| 20260503211517 | 16 | 335 | 8.0 | 22.5 | 0.00 | 0.00 | 0.00 | 32 | 1014.2 |
| 20260503210015 | 16 | 258 | 8.0 | 25.7 | 0.00 | 0.00 | 0.00 | 31 | 1014.4 |
| 20260503204519 | 16 | 303 | 16.1 | 27.4 | 0.00 | 0.00 | 0.00 | 30 | 1014.4 |
| 20260503203015 | 16 | 332 | 14.5 | 35.4 | 0.00 | 0.00 | 0.00 | 31 | 1014.5 |
| 20260503201510 | 16 | 301 | 9.7 | 24.1 | 0.00 | 0.00 | 0.00 | 32 | 1014.8 |
| 20260503200009 | 16 | 327 | 14.5 | 29.0 | 0.00 | 0.00 | 0.00 | 32 | 1014.9 |
| 20260503194505 | 16 | 231 | 9.7 | 25.7 | 0.00 | 0.00 | 0.00 | 32 | 1015.2 |
| 20260503193010 | 15 | 328 | 11.3 | 20.9 | 0.00 | 0.00 | 0.00 | 34 | 1015.3 |
| 20260503191503 | 16 | 350 | 19.3 | 29.0 | 0.00 | 0.00 | 0.00 | 34 | 1015.6 |
| 20260503190001 | 16 | 249 | 4.8 | 19.3 | 0.00 | 0.00 | 0.00 | 31 | 1015.7 |
| 20260503184533 | 16 | 284 | 9.7 | 27.4 | 0.00 | 0.00 | 0.00 | 37 | 1016.0 |
| 20260503183029 | 15 | 260 | 12.9 | 30.6 | 0.00 | 0.00 | 0.00 | 36 | 1016.2 |
| 20260503181527 | 15 | 291 | 6.4 | 29.0 | 0.00 | 0.00 | 0.00 | 31 | 1016.3 |
| 20260503180027 | 15 | 348 | 17.7 | 29.0 | 0.00 | 0.00 | 0.00 | 35 | 1016.2 |
| 20260503174530 | 15 | 12 | 9.7 | 30.6 | 0.00 | 0.00 | 0.00 | 35 | 1016.3 |
| 20260503173025 | 15 | 269 | 14.5 | 33.8 | 0.00 | 0.00 | 0.00 | 32 | 1016.5 |
| 20260503171524 | 15 | 276 | 9.7 | 19.3 | 0.00 | 0.00 | 0.00 | 33 | 1016.7 |